Year,Month,Day,Hour,Minute,Value (Times are PST for temperature in C)
2015,06,06,00,00,19.20
2015,06,06,00,01,19.10
2015,06,06,00,02,19.00
2015,06,06,00,03,18.90
2015,06,06,00,04,18.80
2015,06,06,00,05,18.70
2015,06,06,00,06,18.60
2015,06,06,00,07,18.60
2015,06,06,00,08,18.50
2015,06,06,00,09,18.50
2015,06,06,00,10,18.50
2015,06,06,00,11,18.40
2015,06,06,00,12,18.40
2015,06,06,00,13,18.40
2015,06,06,00,14,18.30
2015,06,06,00,15,18.30
2015,06,06,00,16,18.30
2015,06,06,00,17,18.30
2015,06,06,00,18,18.20
2015,06,06,00,19,18.20
2015,06,06,00,20,18.20
2015,06,06,00,21,18.20
2015,06,06,00,22,18.20
2015,06,06,00,23,18.20
2015,06,06,00,24,18.10
2015,06,06,00,25,18.10
2015,06,06,00,26,18.10
2015,06,06,00,27,18.10
2015,06,06,00,28,18.10
2015,06,06,00,29,18.20
2015,06,06,00,30,18.10
2015,06,06,00,31,18.10
2015,06,06,00,32,18.10
2015,06,06,00,33,18.10
2015,06,06,00,34,18.00
2015,06,06,00,35,18.00
2015,06,06,00,36,17.90
2015,06,06,00,37,17.90
2015,06,06,00,38,17.90
2015,06,06,00,39,17.80
2015,06,06,00,40,17.80
2015,06,06,00,41,17.80
2015,06,06,00,42,17.80
2015,06,06,00,43,17.70
2015,06,06,00,44,17.70
2015,06,06,00,45,17.70
2015,06,06,00,46,17.60
2015,06,06,00,47,17.60
2015,06,06,00,48,17.50
2015,06,06,00,49,17.50
2015,06,06,00,50,17.40
2015,06,06,00,51,17.40
2015,06,06,00,52,17.30
2015,06,06,00,53,17.30
2015,06,06,00,54,17.20
2015,06,06,00,55,17.20
2015,06,06,00,56,17.20
2015,06,06,00,57,17.20
2015,06,06,00,58,17.30
2015,06,06,00,59,17.40
2015,06,06,01,00,17.50
2015,06,06,01,01,17.50
2015,06,06,01,02,17.60
2015,06,06,01,03,17.70
2015,06,06,01,04,17.70
2015,06,06,01,05,17.80
2015,06,06,01,06,17.80
2015,06,06,01,07,17.90
2015,06,06,01,08,17.90
2015,06,06,01,09,18.00
2015,06,06,01,10,18.00
2015,06,06,01,11,18.10
2015,06,06,01,12,18.00
2015,06,06,01,13,18.00
2015,06,06,01,14,17.90
2015,06,06,01,15,17.90
2015,06,06,01,16,17.90
2015,06,06,01,17,17.90
2015,06,06,01,18,17.90
2015,06,06,01,19,17.90
2015,06,06,01,20,18.00
2015,06,06,01,21,18.10
2015,06,06,01,22,18.10
2015,06,06,01,23,18.20
2015,06,06,01,24,18.20
2015,06,06,01,25,18.30
2015,06,06,01,26,18.30
2015,06,06,01,27,18.40
2015,06,06,01,28,18.50
2015,06,06,01,29,18.50
2015,06,06,01,30,18.60
2015,06,06,01,31,18.60
2015,06,06,01,32,18.60
2015,06,06,01,33,18.70
2015,06,06,01,34,18.70
2015,06,06,01,35,18.70
2015,06,06,01,36,18.70
2015,06,06,01,37,18.70
2015,06,06,01,38,18.70
2015,06,06,01,39,18.70
2015,06,06,01,40,18.60
2015,06,06,01,41,18.60
2015,06,06,01,42,18.60
2015,06,06,01,43,18.60
2015,06,06,01,44,18.60
2015,06,06,01,45,18.60
2015,06,06,01,46,18.50
2015,06,06,01,47,18.50
2015,06,06,01,48,18.50
2015,06,06,01,49,18.40
2015,06,06,01,50,18.40
2015,06,06,01,51,18.40
2015,06,06,01,52,18.30
2015,06,06,01,53,18.30
2015,06,06,01,54,18.40
2015,06,06,01,55,18.30
2015,06,06,01,56,18.20
2015,06,06,01,57,18.10
2015,06,06,01,58,17.90
2015,06,06,01,59,17.70
2015,06,06,02,00,17.60
2015,06,06,02,01,17.50
2015,06,06,02,02,17.30
2015,06,06,02,03,17.30
2015,06,06,02,04,17.10
2015,06,06,02,05,17.10
2015,06,06,02,06,17.00
2015,06,06,02,07,16.90
2015,06,06,02,08,16.90
2015,06,06,02,09,16.80
2015,06,06,02,10,16.70
2015,06,06,02,11,16.70
2015,06,06,02,12,16.60
2015,06,06,02,13,16.50
2015,06,06,02,14,16.40
2015,06,06,02,15,16.30
2015,06,06,02,16,16.30
2015,06,06,02,17,16.20
2015,06,06,02,18,16.20
2015,06,06,02,19,16.10
2015,06,06,02,20,16.10
2015,06,06,02,21,16.10
2015,06,06,02,22,16.10
2015,06,06,02,23,16.20
2015,06,06,02,24,16.20
2015,06,06,02,25,16.30
2015,06,06,02,26,16.30
2015,06,06,02,27,16.30
2015,06,06,02,28,16.30
2015,06,06,02,29,16.20
2015,06,06,02,30,16.20
2015,06,06,02,31,16.10
2015,06,06,02,32,16.00
2015,06,06,02,33,16.00
2015,06,06,02,34,15.90
2015,06,06,02,35,15.80
2015,06,06,02,36,15.80
2015,06,06,02,37,15.70
2015,06,06,02,38,15.70
2015,06,06,02,39,15.60
2015,06,06,02,40,15.60
2015,06,06,02,41,15.50
2015,06,06,02,42,15.50
2015,06,06,02,43,15.40
2015,06,06,02,44,15.40
2015,06,06,02,45,15.50
2015,06,06,02,46,15.50
2015,06,06,02,47,15.50
2015,06,06,02,48,15.50
2015,06,06,02,49,15.50
2015,06,06,02,50,15.60
2015,06,06,02,51,15.60
2015,06,06,02,52,15.60
2015,06,06,02,53,15.60
2015,06,06,02,54,15.60
2015,06,06,02,55,15.50
2015,06,06,02,56,15.50
2015,06,06,02,57,15.40
2015,06,06,02,58,15.30
2015,06,06,02,59,15.30
2015,06,06,03,00,15.20
2015,06,06,03,01,15.10
2015,06,06,03,02,15.10
2015,06,06,03,03,15.10
2015,06,06,03,04,15.00
2015,06,06,03,05,15.00
2015,06,06,03,06,15.00
2015,06,06,03,07,15.00
2015,06,06,03,08,15.00
2015,06,06,03,09,15.00
2015,06,06,03,10,15.00
2015,06,06,03,11,15.00
2015,06,06,03,12,15.00
2015,06,06,03,13,15.00
2015,06,06,03,14,15.00
2015,06,06,03,15,15.00
2015,06,06,03,16,15.00
2015,06,06,03,17,15.10
2015,06,06,03,18,15.20
2015,06,06,03,19,15.30
2015,06,06,03,20,15.30
2015,06,06,03,21,15.40
2015,06,06,03,22,15.40
2015,06,06,03,23,15.50
2015,06,06,03,24,15.50
2015,06,06,03,25,15.50
2015,06,06,03,26,15.50
2015,06,06,03,27,15.60
2015,06,06,03,28,15.60
2015,06,06,03,29,15.60
2015,06,06,03,30,15.70
2015,06,06,03,31,15.70
2015,06,06,03,32,15.80
2015,06,06,03,33,16.00
2015,06,06,03,34,16.10
2015,06,06,03,35,16.20
2015,06,06,03,36,16.20
2015,06,06,03,37,16.30
2015,06,06,03,38,16.30
2015,06,06,03,39,16.20
2015,06,06,03,40,16.30
2015,06,06,03,41,16.30
2015,06,06,03,42,16.30
2015,06,06,03,43,16.20
2015,06,06,03,44,16.20
2015,06,06,03,45,16.20
2015,06,06,03,46,16.10
2015,06,06,03,47,16.10
2015,06,06,03,48,16.10
2015,06,06,03,49,16.10
2015,06,06,03,50,16.10
2015,06,06,03,51,16.20
2015,06,06,03,52,16.30
2015,06,06,03,53,16.40
2015,06,06,03,54,16.50
2015,06,06,03,55,16.60
2015,06,06,03,56,16.70
2015,06,06,03,57,16.80
2015,06,06,03,58,16.90
2015,06,06,03,59,16.90
2015,06,06,04,00,17.00
2015,06,06,04,01,17.00
2015,06,06,04,02,16.90
2015,06,06,04,03,16.70
2015,06,06,04,04,16.60
2015,06,06,04,05,16.50
2015,06,06,04,06,16.50
2015,06,06,04,07,16.50
2015,06,06,04,08,16.60
2015,06,06,04,09,16.60
2015,06,06,04,10,16.60
2015,06,06,04,11,16.50
2015,06,06,04,12,16.40
2015,06,06,04,13,16.40
2015,06,06,04,14,16.30
2015,06,06,04,15,16.30
2015,06,06,04,16,16.30
2015,06,06,04,17,16.40
2015,06,06,04,18,16.50
2015,06,06,04,19,16.60
2015,06,06,04,20,16.80
2015,06,06,04,21,16.90
2015,06,06,04,22,17.00
2015,06,06,04,23,17.00
2015,06,06,04,24,17.10
2015,06,06,04,25,17.10
2015,06,06,04,26,17.10
2015,06,06,04,27,17.10
2015,06,06,04,28,17.00
2015,06,06,04,29,17.00
2015,06,06,04,30,16.90
2015,06,06,04,31,16.90
2015,06,06,04,32,16.80
2015,06,06,04,33,16.80
2015,06,06,04,34,16.80
2015,06,06,04,35,16.70
2015,06,06,04,36,16.70
2015,06,06,04,37,16.70
2015,06,06,04,38,16.70
2015,06,06,04,39,16.70
2015,06,06,04,40,16.70
2015,06,06,04,41,16.70
2015,06,06,04,42,16.70
2015,06,06,04,43,16.70
2015,06,06,04,44,16.70
2015,06,06,04,45,16.70
2015,06,06,04,46,16.70
2015,06,06,04,47,16.70
2015,06,06,04,48,16.70
2015,06,06,04,49,16.70
2015,06,06,04,50,16.70
2015,06,06,04,51,16.60
2015,06,06,04,52,16.60
2015,06,06,04,53,16.50
2015,06,06,04,54,16.40
2015,06,06,04,55,16.30
2015,06,06,04,56,16.30
2015,06,06,04,57,16.20
2015,06,06,04,58,16.20
2015,06,06,04,59,16.10
2015,06,06,05,00,16.10
2015,06,06,05,01,16.00
2015,06,06,05,02,15.90
2015,06,06,05,03,15.70
2015,06,06,05,04,15.60
2015,06,06,05,05,15.50
2015,06,06,05,06,15.40
2015,06,06,05,07,15.40
2015,06,06,05,08,15.30
2015,06,06,05,09,15.30
2015,06,06,05,10,15.30
2015,06,06,05,11,15.30
2015,06,06,05,12,15.30
2015,06,06,05,13,15.30
2015,06,06,05,14,15.30
2015,06,06,05,15,15.40
2015,06,06,05,16,15.40
2015,06,06,05,17,15.50
2015,06,06,05,18,15.60
2015,06,06,05,19,15.70
2015,06,06,05,20,15.80
2015,06,06,05,21,15.90
2015,06,06,05,22,16.00
2015,06,06,05,23,16.10
2015,06,06,05,24,16.20
2015,06,06,05,25,16.20
2015,06,06,05,26,16.30
2015,06,06,05,27,16.30
2015,06,06,05,28,16.40
2015,06,06,05,29,16.50
2015,06,06,05,30,16.50
2015,06,06,05,31,16.60
2015,06,06,05,32,16.70
2015,06,06,05,33,16.80
2015,06,06,05,34,16.80
2015,06,06,05,35,16.80
2015,06,06,05,36,16.90
2015,06,06,05,37,16.90
2015,06,06,05,38,16.90
2015,06,06,05,39,16.90
2015,06,06,05,40,17.00
2015,06,06,05,41,17.00
2015,06,06,05,42,17.00
2015,06,06,05,43,17.00
2015,06,06,05,44,17.00
2015,06,06,05,45,17.00
2015,06,06,05,46,17.00
2015,06,06,05,47,17.00
2015,06,06,05,48,17.00
2015,06,06,05,49,16.90
2015,06,06,05,50,16.90
2015,06,06,05,51,16.90
2015,06,06,05,52,16.80
2015,06,06,05,53,16.70
2015,06,06,05,54,16.70
2015,06,06,05,55,16.60
2015,06,06,05,56,16.50
2015,06,06,05,57,16.40
2015,06,06,05,58,16.40
2015,06,06,05,59,16.30
2015,06,06,06,00,16.20
2015,06,06,06,01,16.20
2015,06,06,06,02,16.20
2015,06,06,06,03,16.20
2015,06,06,06,04,16.20
2015,06,06,06,05,16.20
2015,06,06,06,06,16.20
2015,06,06,06,07,16.30
2015,06,06,06,08,16.40
2015,06,06,06,09,16.50
2015,06,06,06,10,16.60
2015,06,06,06,11,16.60
2015,06,06,06,12,16.70
2015,06,06,06,13,16.80
2015,06,06,06,14,16.90
2015,06,06,06,15,17.00
2015,06,06,06,16,17.10
2015,06,06,06,17,17.20
2015,06,06,06,18,17.20
2015,06,06,06,19,17.30
2015,06,06,06,20,17.40
2015,06,06,06,21,17.40
2015,06,06,06,22,17.50
2015,06,06,06,23,17.60
2015,06,06,06,24,17.70
2015,06,06,06,25,17.80
2015,06,06,06,26,17.90
2015,06,06,06,27,18.00
2015,06,06,06,28,18.00
2015,06,06,06,29,18.10
2015,06,06,06,30,18.10
2015,06,06,06,31,18.10
2015,06,06,06,32,18.10
2015,06,06,06,33,18.10
2015,06,06,06,34,18.20
2015,06,06,06,35,18.20
2015,06,06,06,36,18.20
2015,06,06,06,37,18.20
2015,06,06,06,38,18.20
2015,06,06,06,39,18.20
2015,06,06,06,40,18.20
2015,06,06,06,41,18.20
2015,06,06,06,42,18.20
2015,06,06,06,43,18.20
2015,06,06,06,44,18.10
2015,06,06,06,45,18.10
2015,06,06,06,46,18.20
2015,06,06,06,47,18.20
2015,06,06,06,48,18.20
2015,06,06,06,49,18.20
2015,06,06,06,50,18.30
2015,06,06,06,51,18.30
2015,06,06,06,52,18.40
2015,06,06,06,53,18.50
2015,06,06,06,54,18.60
2015,06,06,06,55,18.60
2015,06,06,06,56,18.70
2015,06,06,06,57,18.70
2015,06,06,06,58,18.70
2015,06,06,06,59,18.70
2015,06,06,07,00,18.80
2015,06,06,07,01,18.80
2015,06,06,07,02,18.80
2015,06,06,07,03,18.80
2015,06,06,07,04,18.80
2015,06,06,07,05,18.80
2015,06,06,07,06,18.80
2015,06,06,07,07,18.80
2015,06,06,07,08,18.80
2015,06,06,07,09,18.80
2015,06,06,07,10,18.80
2015,06,06,07,11,18.80
2015,06,06,07,12,18.80
2015,06,06,07,13,18.80
2015,06,06,07,14,18.80
2015,06,06,07,15,18.90
2015,06,06,07,16,18.90
2015,06,06,07,17,19.00
2015,06,06,07,18,19.10
2015,06,06,07,19,19.20
2015,06,06,07,20,19.20
2015,06,06,07,21,19.30
2015,06,06,07,22,19.40
2015,06,06,07,23,19.40
2015,06,06,07,24,19.50
2015,06,06,07,25,19.60
2015,06,06,07,26,19.60
2015,06,06,07,27,19.60
2015,06,06,07,28,19.60
2015,06,06,07,29,19.60
2015,06,06,07,30,19.70
2015,06,06,07,31,19.70
2015,06,06,07,32,19.60
2015,06,06,07,33,19.60
2015,06,06,07,34,19.60
2015,06,06,07,35,19.60
2015,06,06,07,36,19.60
2015,06,06,07,37,19.60
2015,06,06,07,38,19.60
2015,06,06,07,39,19.60
2015,06,06,07,40,19.60
2015,06,06,07,41,19.60
2015,06,06,07,42,19.70
2015,06,06,07,43,19.70
2015,06,06,07,44,19.70
2015,06,06,07,45,19.80
2015,06,06,07,46,19.80
2015,06,06,07,47,19.90
2015,06,06,07,48,20.00
2015,06,06,07,49,20.00
2015,06,06,07,50,20.10
2015,06,06,07,51,20.10
2015,06,06,07,52,20.10
2015,06,06,07,53,20.20
2015,06,06,07,54,20.20
2015,06,06,07,55,20.20
2015,06,06,07,56,20.20
2015,06,06,07,57,20.20
2015,06,06,07,58,20.20
2015,06,06,07,59,20.20
2015,06,06,08,00,20.30
2015,06,06,08,01,20.30
2015,06,06,08,02,20.30
2015,06,06,08,03,20.30
2015,06,06,08,04,20.40
2015,06,06,08,05,20.40
2015,06,06,08,06,20.50
2015,06,06,08,07,20.60
2015,06,06,08,08,20.60
2015,06,06,08,09,20.50
2015,06,06,08,10,20.50
2015,06,06,08,11,20.50
2015,06,06,08,12,20.50
2015,06,06,08,13,20.50
2015,06,06,08,14,20.50
2015,06,06,08,15,20.50
2015,06,06,08,16,20.50
2015,06,06,08,17,20.60
2015,06,06,08,18,20.60
2015,06,06,08,19,20.70
2015,06,06,08,20,20.70
2015,06,06,08,21,20.80
2015,06,06,08,22,20.90
2015,06,06,08,23,20.90
2015,06,06,08,24,21.00
2015,06,06,08,25,21.00
2015,06,06,08,26,21.10
2015,06,06,08,27,21.20
2015,06,06,08,28,21.20
2015,06,06,08,29,21.30
2015,06,06,08,30,21.30
2015,06,06,08,31,21.40
2015,06,06,08,32,21.50
2015,06,06,08,33,21.50
2015,06,06,08,34,21.60
2015,06,06,08,35,21.70
2015,06,06,08,36,21.70
2015,06,06,08,37,21.70
2015,06,06,08,38,21.70
2015,06,06,08,39,21.60
2015,06,06,08,40,21.50
2015,06,06,08,41,21.40
2015,06,06,08,42,21.30
2015,06,06,08,43,21.20
2015,06,06,08,44,21.30
2015,06,06,08,45,21.20
2015,06,06,08,46,21.10
2015,06,06,08,47,21.20
2015,06,06,08,48,21.20
2015,06,06,08,49,21.30
2015,06,06,08,50,21.40
2015,06,06,08,51,21.40
2015,06,06,08,52,21.40
2015,06,06,08,53,21.40
2015,06,06,08,54,21.40
2015,06,06,08,55,21.40
2015,06,06,08,56,21.40
2015,06,06,08,57,21.50
2015,06,06,08,58,21.50
2015,06,06,08,59,21.50
2015,06,06,09,00,21.50
2015,06,06,09,01,21.60
2015,06,06,09,02,21.70
2015,06,06,09,03,21.70
2015,06,06,09,04,21.80
2015,06,06,09,05,21.70
2015,06,06,09,06,21.80
2015,06,06,09,07,21.80
2015,06,06,09,08,21.80
2015,06,06,09,09,21.90
2015,06,06,09,10,21.90
2015,06,06,09,11,22.00
2015,06,06,09,12,22.00
2015,06,06,09,13,22.00
2015,06,06,09,14,22.10
2015,06,06,09,15,22.20
2015,06,06,09,16,22.30
2015,06,06,09,17,22.30
2015,06,06,09,18,22.30
2015,06,06,09,19,22.30
2015,06,06,09,20,22.30
2015,06,06,09,21,22.30
2015,06,06,09,22,22.30
2015,06,06,09,23,22.30
2015,06,06,09,24,22.30
2015,06,06,09,25,22.30
2015,06,06,09,26,22.20
2015,06,06,09,27,22.10
2015,06,06,09,28,22.00
2015,06,06,09,29,22.00
2015,06,06,09,30,21.90
2015,06,06,09,31,21.80
2015,06,06,09,32,21.90
2015,06,06,09,33,21.80
2015,06,06,09,34,21.80
2015,06,06,09,35,21.80
2015,06,06,09,36,21.70
2015,06,06,09,37,21.60
2015,06,06,09,38,21.60
2015,06,06,09,39,21.60
2015,06,06,09,40,21.60
2015,06,06,09,41,21.50
2015,06,06,09,42,21.60
2015,06,06,09,43,21.50
2015,06,06,09,44,21.60
2015,06,06,09,45,21.50
2015,06,06,09,46,21.50
2015,06,06,09,47,21.50
2015,06,06,09,48,21.60
2015,06,06,09,49,21.70
2015,06,06,09,50,21.80
2015,06,06,09,51,21.80
2015,06,06,09,52,21.80
2015,06,06,09,53,21.80
2015,06,06,09,54,21.90
2015,06,06,09,55,22.00
2015,06,06,09,56,22.10
2015,06,06,09,57,22.10
2015,06,06,09,58,22.10
2015,06,06,09,59,22.10
2015,06,06,10,00,22.00
2015,06,06,10,01,22.00
2015,06,06,10,02,21.90
2015,06,06,10,03,21.90
2015,06,06,10,04,21.80
2015,06,06,10,05,21.80
2015,06,06,10,06,21.80
2015,06,06,10,07,21.80
2015,06,06,10,08,21.80
2015,06,06,10,09,21.80
2015,06,06,10,10,21.90
2015,06,06,10,11,21.90
2015,06,06,10,12,21.90
2015,06,06,10,13,22.00
2015,06,06,10,14,22.10
2015,06,06,10,15,22.10
2015,06,06,10,16,22.20
2015,06,06,10,17,22.30
2015,06,06,10,18,22.40
2015,06,06,10,19,22.40
2015,06,06,10,20,22.40
2015,06,06,10,21,22.50
2015,06,06,10,22,22.60
2015,06,06,10,23,22.60
2015,06,06,10,24,22.70
2015,06,06,10,25,22.80
2015,06,06,10,26,22.90
2015,06,06,10,27,23.00
2015,06,06,10,28,23.00
2015,06,06,10,29,23.10
2015,06,06,10,30,23.00
2015,06,06,10,31,22.90
2015,06,06,10,32,22.80
2015,06,06,10,33,22.80
2015,06,06,10,34,22.80
2015,06,06,10,35,22.80
2015,06,06,10,36,22.80
2015,06,06,10,37,22.90
2015,06,06,10,38,22.90
2015,06,06,10,39,22.90
2015,06,06,10,40,22.90
2015,06,06,10,41,22.80
2015,06,06,10,42,22.80
2015,06,06,10,43,22.70
2015,06,06,10,44,22.80
2015,06,06,10,45,22.90
2015,06,06,10,46,23.00
2015,06,06,10,47,23.10
2015,06,06,10,48,23.20
2015,06,06,10,49,23.20
2015,06,06,10,50,23.20
2015,06,06,10,51,23.20
2015,06,06,10,52,23.20
2015,06,06,10,53,23.40
2015,06,06,10,54,23.50
2015,06,06,10,55,23.60
2015,06,06,10,56,23.70
2015,06,06,10,57,23.70
2015,06,06,10,58,23.70
2015,06,06,10,59,23.60
2015,06,06,11,00,23.60
2015,06,06,11,01,23.80
2015,06,06,11,02,23.90
2015,06,06,11,03,23.90
2015,06,06,11,04,23.80
2015,06,06,11,05,23.70
2015,06,06,11,06,23.60
2015,06,06,11,07,23.40
2015,06,06,11,08,23.30
2015,06,06,11,09,23.30
2015,06,06,11,10,23.20
2015,06,06,11,11,23.10
2015,06,06,11,12,23.00
2015,06,06,11,13,22.90
2015,06,06,11,14,22.90
2015,06,06,11,15,23.00
2015,06,06,11,16,23.10
2015,06,06,11,17,23.10
2015,06,06,11,18,23.10
2015,06,06,11,19,23.00
2015,06,06,11,20,23.00
2015,06,06,11,21,23.00
2015,06,06,11,22,23.00
2015,06,06,11,23,23.00
2015,06,06,11,24,23.00
2015,06,06,11,25,23.10
2015,06,06,11,26,23.10
2015,06,06,11,27,23.10
2015,06,06,11,28,23.20
2015,06,06,11,29,23.30
2015,06,06,11,30,23.40
2015,06,06,11,31,23.40
2015,06,06,11,32,23.40
2015,06,06,11,33,23.40
2015,06,06,11,34,23.40
2015,06,06,11,35,23.40
2015,06,06,11,36,23.40
2015,06,06,11,37,23.40
2015,06,06,11,38,23.30
2015,06,06,11,39,23.20
2015,06,06,11,40,23.10
2015,06,06,11,41,22.90
2015,06,06,11,42,22.80
2015,06,06,11,43,22.90
2015,06,06,11,44,23.10
2015,06,06,11,45,23.30
2015,06,06,11,46,23.40
2015,06,06,11,47,23.40
2015,06,06,11,48,23.30
2015,06,06,11,49,23.40
2015,06,06,11,50,23.40
2015,06,06,11,51,23.50
2015,06,06,11,52,23.40
2015,06,06,11,53,23.40
2015,06,06,11,54,23.30
2015,06,06,11,55,23.20
2015,06,06,11,56,23.20
2015,06,06,11,57,23.10
2015,06,06,11,58,23.10
2015,06,06,11,59,23.20
2015,06,06,12,00,23.30
2015,06,06,12,01,23.30
2015,06,06,12,02,23.30
2015,06,06,12,03,23.30
2015,06,06,12,04,23.40
2015,06,06,12,05,23.50
2015,06,06,12,06,23.60
2015,06,06,12,07,23.70
2015,06,06,12,08,23.70
2015,06,06,12,09,23.70
2015,06,06,12,10,23.70
2015,06,06,12,11,23.70
2015,06,06,12,12,23.80
2015,06,06,12,13,23.80
2015,06,06,12,14,23.80
2015,06,06,12,15,23.70
2015,06,06,12,16,23.60
2015,06,06,12,17,23.60
2015,06,06,12,18,23.70
2015,06,06,12,19,23.70
2015,06,06,12,20,23.80
2015,06,06,12,21,23.80
2015,06,06,12,22,23.90
2015,06,06,12,23,23.80
2015,06,06,12,24,23.70
2015,06,06,12,25,23.70
2015,06,06,12,26,23.60
2015,06,06,12,27,23.60
2015,06,06,12,28,23.60
2015,06,06,12,29,23.60
2015,06,06,12,30,23.60
2015,06,06,12,31,23.70
2015,06,06,12,32,23.70
2015,06,06,12,33,23.80
2015,06,06,12,34,23.90
2015,06,06,12,35,23.80
2015,06,06,12,36,23.80
2015,06,06,12,37,23.80
2015,06,06,12,38,23.70
2015,06,06,12,39,23.60
2015,06,06,12,40,23.50
2015,06,06,12,41,23.50
2015,06,06,12,42,23.60
2015,06,06,12,43,23.80
2015,06,06,12,44,23.80
2015,06,06,12,45,23.90
2015,06,06,12,46,24.00
2015,06,06,12,47,24.00
2015,06,06,12,48,23.90
2015,06,06,12,49,23.90
2015,06,06,12,50,24.00
2015,06,06,12,51,24.10
2015,06,06,12,52,24.30
2015,06,06,12,53,24.40
2015,06,06,12,54,24.40
2015,06,06,12,55,24.30
2015,06,06,12,56,24.20
2015,06,06,12,57,24.20
2015,06,06,12,58,24.10
2015,06,06,12,59,24.10
2015,06,06,13,00,24.10
2015,06,06,13,01,24.20
2015,06,06,13,02,24.10
2015,06,06,13,03,24.10
2015,06,06,13,04,24.20
2015,06,06,13,05,24.20
2015,06,06,13,06,24.20
2015,06,06,13,07,24.20
2015,06,06,13,08,24.20
2015,06,06,13,09,24.30
2015,06,06,13,10,24.40
2015,06,06,13,11,24.50
2015,06,06,13,12,24.60
2015,06,06,13,13,24.80
2015,06,06,13,14,24.90
2015,06,06,13,15,25.00
2015,06,06,13,16,25.10
2015,06,06,13,17,25.20
2015,06,06,13,18,25.30
2015,06,06,13,19,25.40
2015,06,06,13,20,25.30
2015,06,06,13,21,25.20
2015,06,06,13,22,25.10
2015,06,06,13,23,24.90
2015,06,06,13,24,24.80
2015,06,06,13,25,24.70
2015,06,06,13,26,24.70
2015,06,06,13,27,24.70
2015,06,06,13,28,24.70
2015,06,06,13,29,24.60
2015,06,06,13,30,24.40
2015,06,06,13,31,24.30
2015,06,06,13,32,24.40
2015,06,06,13,33,24.40
2015,06,06,13,34,24.50
2015,06,06,13,35,24.60
2015,06,06,13,36,24.60
2015,06,06,13,37,24.70
2015,06,06,13,38,24.80
2015,06,06,13,39,24.80
2015,06,06,13,40,24.80
2015,06,06,13,41,24.70
2015,06,06,13,42,24.60
2015,06,06,13,43,24.50
2015,06,06,13,44,24.50
2015,06,06,13,45,24.50
2015,06,06,13,46,24.50
2015,06,06,13,47,24.50
2015,06,06,13,48,24.50
2015,06,06,13,49,24.40
2015,06,06,13,50,24.40
2015,06,06,13,51,24.50
2015,06,06,13,52,24.70
2015,06,06,13,53,24.70
2015,06,06,13,54,24.80
2015,06,06,13,55,24.70
2015,06,06,13,56,24.70
2015,06,06,13,57,24.60
2015,06,06,13,58,24.50
2015,06,06,13,59,24.60
2015,06,06,14,00,24.60
2015,06,06,14,01,24.60
2015,06,06,14,02,24.70
2015,06,06,14,03,24.70
2015,06,06,14,04,24.60
2015,06,06,14,05,24.60
2015,06,06,14,06,24.60
2015,06,06,14,07,24.60
2015,06,06,14,08,24.70
2015,06,06,14,09,24.90
2015,06,06,14,10,25.00
2015,06,06,14,11,25.10
2015,06,06,14,12,25.10
2015,06,06,14,13,25.10
2015,06,06,14,14,25.00
2015,06,06,14,15,24.90
2015,06,06,14,16,25.00
2015,06,06,14,17,25.00
2015,06,06,14,18,25.00
2015,06,06,14,19,25.00
2015,06,06,14,20,25.10
2015,06,06,14,21,25.30
2015,06,06,14,22,25.30
2015,06,06,14,23,25.30
2015,06,06,14,24,25.40
2015,06,06,14,25,25.40
2015,06,06,14,26,25.40
2015,06,06,14,27,25.40
2015,06,06,14,28,25.40
2015,06,06,14,29,25.50
2015,06,06,14,30,25.40
2015,06,06,14,31,25.40
2015,06,06,14,32,25.30
2015,06,06,14,33,25.30
2015,06,06,14,34,25.30
2015,06,06,14,35,25.20
2015,06,06,14,36,25.10
2015,06,06,14,37,25.10
2015,06,06,14,38,25.00
2015,06,06,14,39,25.00
2015,06,06,14,40,25.10
2015,06,06,14,41,25.10
2015,06,06,14,42,25.20
2015,06,06,14,43,25.20
2015,06,06,14,44,25.30
2015,06,06,14,45,25.40
2015,06,06,14,46,25.50
2015,06,06,14,47,25.60
2015,06,06,14,48,25.60
2015,06,06,14,49,25.50
2015,06,06,14,50,25.40
2015,06,06,14,51,25.20
2015,06,06,14,52,25.20
2015,06,06,14,53,25.20
2015,06,06,14,54,25.30
2015,06,06,14,55,25.30
2015,06,06,14,56,25.30
2015,06,06,14,57,25.40
2015,06,06,14,58,25.40
2015,06,06,14,59,25.40
2015,06,06,15,00,25.40
2015,06,06,15,01,25.40
2015,06,06,15,02,25.40
2015,06,06,15,03,25.50
2015,06,06,15,04,25.50
2015,06,06,15,05,25.50
2015,06,06,15,06,25.60
2015,06,06,15,07,25.60
2015,06,06,15,08,25.70
2015,06,06,15,09,25.60
2015,06,06,15,10,25.60
2015,06,06,15,11,25.60
2015,06,06,15,12,25.70
2015,06,06,15,13,25.80
2015,06,06,15,14,25.90
2015,06,06,15,15,25.80
2015,06,06,15,16,25.90
2015,06,06,15,17,25.90
2015,06,06,15,18,25.90
2015,06,06,15,19,25.90
2015,06,06,15,20,25.90
2015,06,06,15,21,25.90
2015,06,06,15,22,26.00
2015,06,06,15,23,25.90
2015,06,06,15,24,25.90
2015,06,06,15,25,25.90
2015,06,06,15,26,25.90
2015,06,06,15,27,25.90
2015,06,06,15,28,25.90
2015,06,06,15,29,25.90
2015,06,06,15,30,25.90
2015,06,06,15,31,25.90
2015,06,06,15,32,25.90
2015,06,06,15,33,26.00
2015,06,06,15,34,26.00
2015,06,06,15,35,26.00
2015,06,06,15,36,26.10
2015,06,06,15,37,26.10
2015,06,06,15,38,26.10
2015,06,06,15,39,26.10
2015,06,06,15,40,26.20
2015,06,06,15,41,26.20
2015,06,06,15,42,26.30
2015,06,06,15,43,26.40
2015,06,06,15,44,26.40
2015,06,06,15,45,26.40
2015,06,06,15,46,26.50
2015,06,06,15,47,26.50
2015,06,06,15,48,26.40
2015,06,06,15,49,26.30
2015,06,06,15,50,26.20
2015,06,06,15,51,26.20
2015,06,06,15,52,26.20
2015,06,06,15,53,26.40
2015,06,06,15,54,26.40
2015,06,06,15,55,26.40
2015,06,06,15,56,26.40
2015,06,06,15,57,26.40
2015,06,06,15,58,26.40
2015,06,06,15,59,26.40
2015,06,06,16,00,26.50
2015,06,06,16,01,26.60
2015,06,06,16,02,26.60
2015,06,06,16,03,26.60
2015,06,06,16,04,26.60
2015,06,06,16,05,26.60
2015,06,06,16,06,26.60
2015,06,06,16,07,26.60
2015,06,06,16,08,26.60
2015,06,06,16,09,26.70
2015,06,06,16,10,26.70
2015,06,06,16,11,26.70
2015,06,06,16,12,26.70
2015,06,06,16,13,26.70
2015,06,06,16,14,26.80
2015,06,06,16,15,26.80
2015,06,06,16,16,26.80
2015,06,06,16,17,26.80
2015,06,06,16,18,26.80
2015,06,06,16,19,26.80
2015,06,06,16,20,26.90
2015,06,06,16,21,27.00
2015,06,06,16,22,27.00
2015,06,06,16,23,26.90
2015,06,06,16,24,26.90
2015,06,06,16,25,26.90
2015,06,06,16,26,27.00
2015,06,06,16,27,27.10
2015,06,06,16,28,27.10
2015,06,06,16,29,27.10
2015,06,06,16,30,27.10
2015,06,06,16,31,27.00
2015,06,06,16,32,27.00
2015,06,06,16,33,26.90
2015,06,06,16,34,26.90
2015,06,06,16,35,26.80
2015,06,06,16,36,26.70
2015,06,06,16,37,26.70
2015,06,06,16,38,26.60
2015,06,06,16,39,26.60
2015,06,06,16,40,26.60
2015,06,06,16,41,26.60
2015,06,06,16,42,26.70
2015,06,06,16,43,26.60
2015,06,06,16,44,26.60
2015,06,06,16,45,26.50
2015,06,06,16,46,26.50
2015,06,06,16,47,26.60
2015,06,06,16,48,26.50
2015,06,06,16,49,26.50
2015,06,06,16,50,26.60
2015,06,06,16,51,26.70
2015,06,06,16,52,26.80
2015,06,06,16,53,26.80
2015,06,06,16,54,26.80
2015,06,06,16,55,26.70
2015,06,06,16,56,26.80
2015,06,06,16,57,26.70
2015,06,06,16,58,26.70
2015,06,06,16,59,26.70
2015,06,06,17,00,26.70
2015,06,06,17,01,26.60
2015,06,06,17,02,26.50
2015,06,06,17,03,26.40
2015,06,06,17,04,26.30
2015,06,06,17,05,26.30
2015,06,06,17,06,26.30
2015,06,06,17,07,26.20
2015,06,06,17,08,26.20
2015,06,06,17,09,26.20
2015,06,06,17,10,26.30
2015,06,06,17,11,26.30
2015,06,06,17,12,26.30
2015,06,06,17,13,26.30
2015,06,06,17,14,26.30
2015,06,06,17,15,26.30
2015,06,06,17,16,26.40
2015,06,06,17,17,26.50
2015,06,06,17,18,26.60
2015,06,06,17,19,26.60